Location: Julian California
(33.0790°N, 116.6010°W)
Time: 07:48:37
(UTC-07:00)

Cosmos 1741 Rocket - Pass Details

Date: 12 July 2018
Orbit: 762 x 782 km, 74.0° (Epoch: 20 July)

Event Time Altitude Azimuth Distance (km) Brightness Sun altitude
Rises 20:43:22 0° 181° (S) 3,231 6.9 -9.2°
Reaches altitude 10° 20:45:49 10° 175° (S) 2,304 6.1 -9.6°
Maximum altitude 20:50:48 47° 102° (ESE) 1,007 4.2 -10.5°
Drops below altitude 10° 20:55:48 10° 30° (NNE) 2,306 6.6 -11.3°
Sets 20:58:15 0° 24° (NNE) 3,233 7.4 -11.7°
